sat.trackr.live / text

‹ back to catalog

STARLINK-33847

NORAD 63685 · 2025-085X

PAYLOAD ACTIVE UNKNOWN

§ Identity

Operator
Country
US
Launch date
2025-04-28
Launch site
AFETR
Launch vehicle
Mass (kg)
RCS (m²)

Purposes: comms

External: N2YO · Heavens-Above · Gunter

§ Orbital elements

Epoch: 2026-05-24T21:23:24.139104Z

Period
94.27 min
Inclination
42.9971°
Eccentricity
0.0002441
Mean motion
15.27606810 rev/d
Perigee alt
481.3 km
Apogee alt
484.6 km
Semi-major
6,861.1 km
B*
5.1857e-4
RAAN
320.5981°
Arg perigee
258.1918°
Mean anomaly
101.8660°
Rev number
6,052

§ Raw data

STARLINK-338471 63685U 25085X   26144.89125161  .00014047  00000+0  51857-3 0  99922 63685  42.9971 320.5981 0002441 258.1918 101.8660 15.27606810 60526

JSON: /api/v1/satellites/63685 · /tle

For live sub-satellite position, see the globe view (requires WebGL).

§ Visibility from observer

Set your observer location to see the next 7 days of passes ≥ 10°. The values pass through the URL so the page stays shareable.

No JS? Fill the form by hand. The geolocation button needs JavaScript.